This is the latest recevied weather packets stored in our database for station/object N2XGL-1. If no packets are shown the sender has not sent any weather packets the latest 10 day(s).
| Time | Temp. | Humidity | Pressure | Rain* | Wind** | Luminosity | Snow |
|---|---|---|---|---|---|---|---|
| 1777336114 | 10.56° C | 65% | 1009.5 hPa | 0 mm | - | - | - |
| 1777335614 | 11.67° C | 61% | 1009.4 hPa | 0 mm | - | - | - |
| 1777335068 | 11.67° C | 60% | 1009.3 hPa | 0 mm | - | - | - |
| 1777334501 | 11.67° C | 55% | 1009.3 hPa | 0 mm | - | - | - |
| 1777333904 | 11.67° C | 56% | 1009.3 hPa | 0 mm | - | - | - |
| 1777333369 | 12.22° C | 52% | 1009.2 hPa | 0 mm | - | - | - |
| 1777332834 | 12.22° C | 52% | 1009.2 hPa | 0 mm | - | - | - |
| 1777332321 | 11.67° C | 51% | 1009 hPa | 0 mm | - | - | - |
| 1777331819 | 11.67° C | 52% | 1009 hPa | 0 mm | - | - | - |
| 1777331219 | 11.67° C | 55% | 1008.9 hPa | 0 mm | - | - | - |
| 1777330714 | 11.67° C | 57% | 1008.9 hPa | 0 mm | - | - | - |
| 1777329563 | 12.22° C | 53% | 1008.6 hPa | 0 mm | - | - | - |
| 1777327878 | 13.33° C | 50% | 1008.2 hPa | 0 mm | - | - | - |
| 1777326909 | 13.33° C | 52% | 1008.5 hPa | 0 mm | - | - | - |
| 1777326405 | 12.78° C | 55% | 1008.7 hPa | 0 mm | - | - | - |
| 1777325858 | 12.78° C | 57% | 1009 hPa | 0 mm | - | - | - |
| 1777325319 | 12.78° C | 55% | 1008.9 hPa | 0 mm | - | - | - |
| 1777324794 | 12.78° C | 51% | 1008.8 hPa | 0 mm | - | - | - |
| 1777324203 | 13.33° C | 51% | 1008.9 hPa | 0 mm | - | - | - |
| 1777323621 | 12.78° C | 54% | 1008.9 hPa | 0 mm | - | - | - |
| 1777323049 | 12.78° C | 53% | 1009 hPa | 0 mm | - | - | - |
| 1777322489 | 12.78° C | 52% | 1009.2 hPa | 0 mm | - | - | - |
| 1777321894 | 13.33° C | 52% | 1009.2 hPa | 0 mm | - | - | - |
| 1777321379 | 12.78° C | 53% | 1009.4 hPa | 0 mm | - | - | - |
| 1777320881 | 12.22° C | 59% | 1009.5 hPa | 0 mm | - | - | - |
* Rain latest hour (hover to see other rain measurements)
** Current wind speed in m/s (hover to see current wind gust speed)